Regional Weather Roundup
Issued by NWS

Home | Current Version | Previous Version | Graphics & Text | Print | Product List | Glossary On
Versions: 1 2 3 4 5 6 7 8 9 10 11 12 13 14 15 16 17 18 19 20 21 22 23 24 25 26 27 28 29 30 31 32 33 34 35 36 37 38 39 40 41 42 43 44 45 46 47 48 49 50
810
ASUS44 KLIX 261201
RWRLA
LOUISIANA WEATHER ROUNDUP
NATIONAL WEATHER SERVICE NEW ORLEANS LA
600 AM CST WED NOV 26 2014

NOTE: "FAIR" INDICATES FEW OR NO CLOUDS BELOW 12,000 FEET WITH NO
      SIGNIFICANT WEATHER AND/OR OBSTRUCTIONS TO VISIBILITY.
      SKY/WX - SKY CONDITION AND SIGNIFICANT WEATHER.
      TMP - AIR TEMPERATURE.    DP   - DEWPOINT TEMPERATURE.
      RH  - RELATIVE HUMIDITY.  PRES - PRESSURE.
      HX  - HEAT INDEX.         WCI  - WIND CHILL INDEX.

*  THESE STATIONS ARE NOT NWS OR FAA STATIONS AND ARE NOT UNDER
   NWS QUALITY CONTROL.

LAZ040-048-061>063-065-066-069-261300-
SOUTHEAST LOUISIANA

CITY           SKY/WX    TMP DP  RH WIND       PRES   REMARKS
N.O. AUDUBON   NOT AVBL
N.O. INTL ARPT CLEAR     39  34  82 CALM      30.24R
6HR MIN TEMP:  38; 6HR MAX TEMP:  48;

N.O. LAKEFRONT CLEAR     42  35  76 SE6       30.25R
6HR MIN TEMP:  42; 6HR MAX TEMP:  50;

N.O. DOWNTOWN* FAIR      45  34  65 CALM      30.25R
6HR MIN TEMP:  43; 6HR MAX TEMP:  48;

SLIDELL        CLEAR     31  28  89 CALM      30.24R
6HR MIN TEMP:  31; 6HR MAX TEMP:  41;

BATON ROUGE    CLEAR     32  29  88 E3        30.22S
6HR MIN TEMP:  31; 6HR MAX TEMP:  36;

BOOTHVILLE     CLEAR     48  37  65 N5        30.25R
6HR MIN TEMP:  48; 6HR MAX TEMP:  51;

BELLE CHASSE   PTCLDY    34  30  85 CALM      30.24R
6HR MIN TEMP:  34; 6HR MAX TEMP:  48;

BOGALUSA*        N/A     31  29  91 CALM      30.24S
6HR MIN TEMP:  31; 6HR MAX TEMP:  38;

NEW ROADS*     NOT AVBL
GONZALES*      NOT AVBL
HAMMOND*       NOT AVBL
HOUMA*         NOT AVBL
PORT FOURCHON* NOT AVBL

$$

LAZ041-044-053-054-261300-
SOUTHWEST LOUISIANA

CITY           SKY/WX    TMP DP  RH WIND       PRES   REMARKS
LAKE CHARLES   CLEAR     39  37  92 CALM      30.21R
6HR MIN TEMP:  37; 6HR MAX TEMP:  40;

LAFAYETTE      CLEAR     41  35  79 S3        30.23R HAZE
6HR MIN TEMP:  36; 6HR MAX TEMP:  41;

PATTERSON      CLEAR     34  30  86 CALM      30.25
6HR MIN TEMP:  34; 6HR MAX TEMP:  37;

SALT POINT       N/A     50  42  74 SE3       30.23R
6HR MIN TEMP:  45; 6HR MAX TEMP:  50;

NEW IBERIA     CLEAR     36  34  92 CALM      30.24R
6HR MIN TEMP:  34; 6HR MAX TEMP:  38;

CHENAULT AIRPK NOT AVBL

$$

LAZ027-028-261300-
CENTRAL LOUISIANA

CITY           SKY/WX    TMP DP  RH WIND       PRES   REMARKS
FORT POLK      CLEAR     40  37  89 SW5       30.19R
6HR MIN TEMP:  37; 6HR MAX TEMP:  42;

ALEXANDRIA INT CLEAR     39  35  86 S5        30.18R
6HR MIN TEMP:  35; 6HR MAX TEMP:  40;

ALEXANDRIA     CLEAR     32  30  92 CALM      30.19R
6HR MIN TEMP:  32; 6HR MAX TEMP:  35;


$$

LAZ001-002-261300-
NORTHWEST LOUISIANA

CITY           SKY/WX    TMP DP  RH WIND       PRES   REMARKS
SHREVEPORT     MOCLDY    43  33  68 S9        30.10F
6HR MIN TEMP:  40; 6HR MAX TEMP:  45;

BARKSDALE AFB  PTCLDY    35  32  88 SE7       30.11F WCI  30
6HR MIN TEMP:  33; 6HR MAX TEMP:  40;

DTN SHREVEPORT PTCLDY    44  31  60 S10       30.11F
6HR MIN TEMP:  41; 6HR MAX TEMP:  46;


$$

LAZ014-016-261300-
NORTHEAST LOUISIANA

CITY           SKY/WX    TMP DP  RH WIND       PRES   REMARKS
MONROE         CLEAR     36  32  85 S3        30.16F
6HR MIN TEMP:  33; 6HR MAX TEMP:  36;

TALLULAH       CLEAR     30  28  92 CALM      30.20R
6HR MIN TEMP:  28; 6HR MAX TEMP:  34;


$$




USA.gov is the U.S. government's official web portal to all federal, state and local government web resources and services.